[[{"header":{"parameterUnit":"m.s-1","parameterCategory":1,"la1":30.2991,"la2":30.254,"lo1":-89.0895,"lo2":-89.0444,"dy":0.0017,"dx":0.0017,"nx":28,"ny":28,"refTime":"2025-04-09T21:00:00:Z","depth":0,"parameterNumber":2,"parameterNumberName":"U-component_of_WINDS"},"data":[0,0,0,0,0,0,0,0,0,0,0,0,0,0,0,0,0,0,0,0,0,0,0,0,0,0,0,0,0,0,0,0,0,0,0,0,0,0,0,0,0,0,0,0,0,0,0,0,0,0,0,0,0,0,0,0,0,0,2.8174,2.8178,0,2.8461,2.8464,2.8467,2.8508,2.8505,2.8502,2.85,2.8799,2.8809,2.8819,0,0,0,0,0,0,0,0,0,0,0,0,0,2.7668,2.7677,2.8174,2.8178,2.8181,2.846,2.8464,2.8468,2.8508,2.8505,2.8501,2.8498,2.8795,2.8808,2.882,0,0,0,0,0,0,0,0,0,0,0,0,0,2.7915,2.768,2.8174,2.8235,2.8243,2.846,2.8465,2.8469,2.8509,2.8505,2.8501,2.8497,2.8791,2.8807,2.8822,2.8999,0,0,2.887,2.8877,0,0,0,0,0,0,0,0,2.7901,2.7933,2.8222,2.8231,2.8241,2.8444,2.8396,2.8647,2.851,2.8408,2.85,2.8495,2.8685,2.8709,2.8772,2.9013,2.9026,2.8871,2.8881,2.8888,2.8892,0,0,0,0,0,0,0,2.7883,2.7921,2.8288,2.8226,2.8238,2.825,2.8281,2.8444,2.8566,2.8417,2.842,2.8453,2.8689,2.8756,2.8779,2.9031,2.8871,2.8885,2.8895,2.8901,2.9436,2.944,0,0,0,0,0,0,2.7854,2.7907,2.8279,2.8296,2.8057,2.8262,2.8296,2.8383,2.8564,2.8587,2.8456,2.8454,2.8731,2.876,2.8789,2.9011,2.8888,2.8902,2.8911,2.9431,2.9437,2.9442,0,0,0,0,0,0,2.7843,2.7887,2.8267,2.8103,2.8152,2.8275,2.8372,2.8391,2.8458,2.8594,2.8616,2.8502,2.8729,2.8767,2.8947,2.9022,2.8909,2.8924,2.9425,2.9433,2.944,2.9454,0,0,0,0,0,0,2.7829,2.7883,2.795,2.8104,2.816,2.8418,2.8377,2.8399,2.8485,2.8484,2.8643,2.8666,2.8729,2.8924,2.8963,2.9042,2.8936,2.9419,2.9429,2.9437,2.9448,2.9461,2.9473,0,0,0,0,0,2.781,2.7943,2.7953,2.7998,2.8246,2.8422,2.8455,2.8524,2.849,2.856,2.8647,2.8661,2.9007,2.8942,2.8986,2.9071,2.9415,2.9426,2.9437,2.9442,2.9459,2.9472,0,0,0,0,0,0,2.7797,2.7964,2.7977,2.8163,2.8278,2.8428,2.8518,2.8539,2.8667,2.8661,2.8743,2.8779,2.8955,2.9031,2.8955,2.9254,2.9208,2.9229,2.9198,2.9214,2.9226,2.9205,2.8949,0,0,0,0,0,2.7815,2.7941,2.8082,2.8233,2.829,2.8394,2.8473,2.8516,2.8639,2.8688,2.8789,2.8909,2.9046,2.9134,2.9267,2.9459,2.9495,2.9539,2.9551,2.9561,2.9578,2.9688,2.971,2.9478,2.9477,2.9477,0,0,2.7855,2.7962,2.8037,2.8233,2.8327,2.8459,2.8435,2.8575,2.8674,2.871,2.8886,2.8964,2.9105,2.9291,2.9379,2.936,2.965,2.9575,2.9581,2.9594,2.9701,2.9723,2.9743,2.9485,2.9484,2.9482,0,0,2.7995,2.8088,2.8225,2.8319,2.8461,2.853,2.8563,2.8711,2.8764,2.8941,2.8972,2.9092,2.9324,2.9424,2.9505,2.9684,2.9702,2.9725,2.9791,2.9897,2.9915,2.9932,2.9998,3.0021,2.9741,2.9741,2.9741,0,2.8027,2.8225,2.8293,2.8433,2.8519,2.8556,2.8697,2.8786,2.8965,2.9025,2.9001,2.9294,2.9391,2.9603,2.9647,2.971,2.9753,2.9708,2.9906,2.9924,2.994,3.0005,3.0029,2.9743,2.9743,2.9743,2.9743,0,2.8259,2.8395,2.8489,2.866,2.8757,2.8896,2.8988,2.9078,2.9113,2.9185,2.9367,2.9484,2.9642,2.9696,2.9731,2.9914,2.9898,2.9889,2.9846,2.9963,3.0025,3.005,2.9746,2.9745,2.9745,2.9744,0,0,2.8398,2.8605,2.8639,2.8717,2.8877,2.8986,2.9128,2.9281,2.9358,2.948,2.9604,2.98,2.9793,2.9885,2.9932,3.0025,3.0163,3.0006,3.001,3.0033,3.0374,3.0381,3.0409,3.0175,3.018,3.0184,3.0363,0,2.8559,2.8811,2.8878,2.9093,2.9222,2.926,2.9385,2.9497,2.9569,2.969,2.977,2.9909,2.9888,2.9944,3.0037,3.0126,3.0233,3.0114,3.0293,3.0299,3.0259,3.0441,3.0449,3.0612,3.0388,3.0392,3.0395,0,2.878,2.8905,2.9133,2.9278,2.9335,2.9445,2.9592,2.9707,2.9837,2.9883,2.9985,3.0024,3.0177,3.0124,3.0337,3.0255,3.0332,3.0387,3.0395,3.0416,3.0355,3.0469,3.0666,3.0691,3.0433,3.043,3.0427,0,2.8861,2.9088,2.9254,2.932,2.9493,2.957,2.9646,2.9772,2.986,2.9989,3.0048,3.0193,3.0274,3.0387,3.0465,3.0419,3.0673,3.0626,3.0718,3.0716,3.0771,3.0767,3.0985,3.0817,3.0816,3.0816,3.0815,0,2.9035,2.9173,2.9294,2.9396,2.9554,2.9629,2.9784,2.9861,2.9973,3.0094,3.0135,3.0248,3.0343,3.047,3.0532,3.0701,3.0736,3.0779,3.0795,3.0777,3.0772,3.083,3.0822,3.0822,3.0821,3.082,3.0819,0,2.9153,2.9239,2.9423,2.9571,2.9612,2.9722,2.985,2.9953,3.0025,3.0177,3.0217,3.0332,3.0483,3.0572,3.0763,3.0805,3.0992,3.1001,3.0948,3.0955,3.1043,3.1034,3.1308,3.135,3.1151,3.1153,3.1154,0,2.9259,2.9367,2.9526,2.9609,2.9685,2.9818,2.9909,2.9988,3.0081,3.0238,3.0322,3.0475,3.0602,3.0842,3.0944,3.1091,3.1106,3.1192,3.1128,3.1108,3.111,3.1104,3.1116,3.1203,3.1205,3.1206,3.1207,0,2.9439,2.9476,2.9603,2.9747,2.9853,2.9971,3.0087,3.0153,3.0253,3.0356,3.0509,3.0608,3.0802,3.0955,3.1111,3.1192,3.1218,3.1226,3.1256,3.124,3.1205,3.1228,3.098,3.122,3.1219,3.1218,3.1217,3.1217,2.9556,2.9654,2.9782,2.9924,3.002,3.0128,3.0232,3.0318,3.0447,3.061,3.065,3.0812,3.0942,3.1154,3.1239,3.1369,3.1355,3.1397,3.1408,3.1418,3.1422,3.1182,3.1397,3.1397,3.1397,3.1397,3.1396,0,2.974,2.9824,2.9953,3.0115,3.0227,3.0239,3.0369,3.0463,3.0605,3.0723,3.0847,3.1025,3.1174,3.1287,3.144,3.1523,3.1539,3.1561,3.1557,3.1576,3.1424,3.1384,3.1545,3.1545,3.1545,3.1545,3.1545,3.1545,2.9849,3.0016,3.0069,3.0285,3.037,3.0528,3.0602,3.0703,3.0798,3.0994,3.1117,3.119,3.1307,3.1469,3.1607,3.1637,3.1693,3.1713,3.1745,3.1602,3.1586,3.1571,3.1534,3.1724,3.1724,3.1887,3.1888,3.1889]},{"header":{"parameterUnit":"m.s-1","parameterCategory":1,"la1":30.2991,"la2":30.254,"lo1":-89.0895,"lo2":-89.0444,"dy":0.0017,"dx":0.0017,"nx":28,"ny":28,"refTime":"2025-04-09T21:00:00:Z","depth":0,"parameterNumber":3,"parameterNumberName":"V-component_of_WINDS"},"data":[0,0,0,0,0,0,0,0,0,0,0,0,0,0,0,0,0,0,0,0,0,0,0,0,0,0,0,0,0,0,0,0,0,0,0,0,0,0,0,0,0,0,0,0,0,0,0,0,0,0,0,0,0,0,0,0,0,0,3.7752,3.7755,0,3.8024,3.8027,3.803,3.8064,3.8061,3.8059,3.8056,3.8332,3.8342,3.8351,0,0,0,0,0,0,0,0,0,0,0,0,0,3.7259,3.7268,3.7751,3.7755,3.7758,3.8023,3.8027,3.803,3.8064,3.8061,3.8058,3.8055,3.8329,3.834,3.8352,0,0,0,0,0,0,0,0,0,0,0,0,0,3.7496,3.7271,3.7751,3.7807,3.7815,3.8022,3.8027,3.8031,3.8065,3.8061,3.8057,3.8054,3.8325,3.8339,3.8354,3.8523,0,0,3.8399,3.8405,0,0,0,0,0,0,0,0,3.7483,3.7514,3.7795,3.7804,3.7813,3.8006,3.7954,3.8196,3.8066,3.797,3.8056,3.8052,3.8227,3.8249,3.8309,3.8536,3.8548,3.84,3.8409,3.8415,3.8419,0,0,0,0,0,0,0,3.7466,3.7503,3.7859,3.7799,3.781,3.7818,3.7847,3.8,3.8117,3.7978,3.7981,3.8013,3.823,3.8294,3.8315,3.8552,3.84,3.8413,3.8422,3.8427,3.8932,3.8937,0,0,0,0,0,0,3.744,3.7489,3.785,3.7867,3.7635,3.783,3.7863,3.7948,3.8115,3.8137,3.8016,3.8014,3.8271,3.8298,3.8325,3.8536,3.8415,3.8429,3.8437,3.8928,3.8933,3.8938,0,0,0,0,0,0,3.7429,3.7472,3.7839,3.7679,3.7726,3.7843,3.7938,3.7955,3.8019,3.8144,3.8165,3.806,3.8269,3.8305,3.8474,3.8546,3.8435,3.8449,3.8922,3.893,3.8936,3.8957,0,0,0,0,0,0,3.7415,3.7468,3.7534,3.768,3.7735,3.7985,3.7942,3.7963,3.8045,3.8044,3.8191,3.8212,3.8269,3.8452,3.8489,3.8564,3.846,3.8917,3.8926,3.8934,3.895,3.8964,3.8975,0,0,0,0,0,3.7397,3.7528,3.7537,3.758,3.782,3.7989,3.802,3.8084,3.805,3.8118,3.8198,3.8207,3.8531,3.8469,3.8511,3.8591,3.8912,3.8923,3.8933,3.8945,3.8961,3.8975,0,0,0,0,0,0,3.7386,3.7548,3.756,3.7742,3.7852,3.7994,3.8081,3.8099,3.8219,3.8213,3.8286,3.8319,3.8486,3.8555,3.8483,3.8764,3.8719,3.8738,3.8713,3.873,3.8742,3.8722,3.8472,0,0,0,0,0,3.7405,3.7529,3.7664,3.7811,3.7866,3.7964,3.8039,3.8079,3.8195,3.8241,3.8334,3.8445,3.8572,3.8654,3.8778,3.896,3.8993,3.9036,3.9048,3.9057,3.9074,3.9176,3.9197,3.8972,3.8972,3.8972,0,0,3.7445,3.7549,3.7623,3.7812,3.7901,3.8028,3.8002,3.8137,3.8232,3.8261,3.8428,3.8499,3.8628,3.8805,3.8887,3.8868,3.9143,3.9071,3.9077,3.9089,3.9189,3.921,3.9229,3.898,3.8978,3.8977,0,0,3.7583,3.7674,3.7808,3.7898,3.8034,3.8098,3.813,3.8271,3.832,3.8488,3.8513,3.8626,3.8843,3.8935,3.9009,3.9182,3.9195,3.922,3.9285,3.9384,3.9401,3.9418,3.948,3.9502,3.9235,3.9235,3.9235,0,3.7616,3.7808,3.7874,3.8009,3.8091,3.8125,3.8261,3.8345,3.8514,3.857,3.8545,3.882,3.8908,3.9107,3.915,3.9208,3.9247,3.9204,3.9394,3.941,3.9426,3.9487,3.9511,3.9237,3.9237,3.9237,3.9237,0,3.7842,3.7975,3.8067,3.8231,3.8323,3.8458,3.8543,3.8629,3.8661,3.8727,3.8898,3.9006,3.9153,3.9202,3.9234,3.9406,3.939,3.9379,3.9335,3.9449,3.9508,3.9531,3.9241,3.924,3.9239,3.9239,0,0,3.7982,3.8181,3.8214,3.8289,3.8441,3.8545,3.868,3.8825,3.8898,3.9012,3.9129,3.9312,3.9303,3.9387,3.9429,3.9515,3.9647,3.9494,3.9498,3.952,3.9845,3.9853,3.9879,3.9655,3.966,3.9664,3.9834,0,3.8139,3.8384,3.8447,3.8655,3.8779,3.8812,3.893,3.9036,3.9102,3.9216,3.9287,3.9417,3.9394,3.9446,3.9533,3.9612,3.9713,3.9601,3.9764,3.977,3.9733,3.991,3.992,4.0075,3.9857,3.9861,3.9864,0,3.8356,3.8477,3.8697,3.8835,3.8889,3.8995,3.9133,3.9241,3.9361,3.9403,3.9498,3.9532,3.9674,3.9621,3.9818,3.974,3.981,3.9859,3.9866,3.9886,3.9825,3.9935,4.0126,4.015,3.99,3.9897,3.9895,0,3.8438,3.8655,3.8816,3.8879,3.9043,3.9116,3.9188,3.9304,3.9387,3.9507,3.9562,3.9696,3.977,3.9872,3.9941,3.9896,4.0133,4.0085,4.0172,4.017,4.0222,4.0218,4.0428,4.0264,4.0263,4.0263,4.0262,0,3.8608,3.8742,3.8856,3.8955,3.9106,3.9176,3.9323,3.9395,3.9499,3.9612,3.9647,3.9753,3.9836,3.9952,4.0007,4.0162,4.0194,4.0232,4.0245,4.023,4.0226,4.0279,4.0271,4.0269,4.0268,4.0266,4.0265,0,3.8726,3.8807,3.8985,3.9125,3.9164,3.9269,3.9389,3.9486,3.9552,3.9695,3.9732,3.9836,3.9975,4.0053,4.0227,4.0264,4.0437,4.0444,4.0397,4.0404,4.0486,4.0478,4.074,4.0778,4.0586,4.0587,4.0589,0,3.883,3.8934,3.9086,3.9165,3.9238,3.9364,3.945,3.9523,3.961,3.9755,3.9835,3.9976,4.0093,4.0313,4.0403,4.0536,4.0548,4.063,4.0568,4.055,4.0551,4.0545,4.0556,4.0642,4.0643,4.0645,4.0646,0,3.9007,3.9042,3.9164,3.9302,3.9403,3.9514,3.9623,3.9686,3.9776,3.9872,4.0016,4.0106,4.0285,4.0425,4.0565,4.0638,4.0658,4.0664,4.0692,4.0679,4.0648,4.0668,4.0429,4.0659,4.0657,4.0656,4.0656,4.0655,3.9123,3.9217,3.934,3.9475,3.9565,3.9667,3.9766,3.9845,3.9966,4.0118,4.0153,4.0304,4.0421,4.0613,4.0688,4.0807,4.0792,4.0831,4.0841,4.0851,4.0854,4.0627,4.0832,4.0832,4.0832,4.0832,4.0832,0,3.9303,3.9383,3.9507,3.966,3.9767,3.9776,3.9898,3.9987,4.012,4.0228,4.0343,4.0507,4.0643,4.0744,4.0883,4.0958,4.0971,4.0992,4.0988,4.1005,4.0859,4.0822,4.098,4.098,4.098,4.098,4.098,4.0979,3.9409,3.9571,3.962,3.9826,3.9906,4.0055,4.0124,4.0218,4.0306,4.0488,4.0602,4.0667,4.0773,4.0919,4.1044,4.107,4.112,4.1141,4.1168,4.1031,4.1015,4.1,4.0966,4.1151,4.1151,4.1305,4.1306,4.1307]}]]